AB9HP Weather Reports


Display with metric or nautical units.
time (UTC)temp
F
wind
direction
speed
MPH
gust
MPH
rain 1hr
in
rain 24hr
in
rain mn
in
humidity
%
barometer
mb
20260902120027 76 197 2.0 9.0 0.00 0.00 0.00 84 1016.4
20260902114542 76 229 1.0 6.0 0.00 0.00 0.00 86 1016.3
20260902113019 75 238 1.0 5.0 0.00 0.00 0.00 87 1016.2
20260902111518 74 231 1.0 4.0 0.00 0.00 0.00 88 1016.1
20260902110013 74 160 0.0 2.0 0.00 0.00 0.00 88 1016.0
20260902104512 75 216 0.0 1.0 0.00 0.00 0.00 88 1015.8
20260902103010 75 214 0.0 2.0 0.00 0.00 0.00 88 1015.6
20260902101506 75 214 1.0 6.0 0.00 0.00 0.00 87 1015.5
20260902100003 75 188 2.0 5.0 0.00 0.00 0.00 87 1015.4
20260902094501 75 216 0.0 3.0 0.00 0.00 0.00 87 1015.3
20260902093113 75 221 1.0 5.0 0.00 0.00 0.00 87 1015.2
20260902091557 76 210 0.0 3.0 0.00 0.00 0.00 87 1015.2
20260902090055 76 189 0.0 1.0 0.00 0.00 0.00 87 1015.3
20260902084555 76 214 0.0 2.0 0.00 0.00 0.00 87 1015.4
20260902083050 76 172 1.0 4.0 0.00 0.00 0.00 87 1015.2
20260902081549 76 219 0.0 2.0 0.00 0.00 0.00 87 1015.2
20260902080048 77 175 1.0 4.0 0.00 0.00 0.00 86 1015.1
20260902074544 77 226 1.0 5.0 0.00 0.00 0.00 86 1015.2
20260902073045 77 182 1.0 6.0 0.00 0.00 0.00 86 1015.2
20260902071545 77 235 3.0 7.0 0.00 0.00 0.00 86 1015.1
20260902070035 77 183 2.0 6.0 0.00 0.00 0.00 86 1015.2
20260902064539 78 217 2.0 6.0 0.00 0.00 0.00 87 1015.1
20260902063030 78 198 2.0 6.0 0.00 0.00 0.00 86 1015.1
20260902061527 79 227 2.0 6.0 0.00 0.00 0.00 86 1015.3
20260902060023 79 221 1.0 5.0 0.00 0.00 0.00 85 1015.3
20260902054533 79 202 1.0 6.0 0.00 0.00 0.00 85 1015.3
20260902053021 79 187 2.0 7.0 0.00 0.00 0.00 86 1015.3
20260902051516 79 233 2.0 6.0 0.00 0.00 0.00 86 1015.2
20260902050025 79 230 1.0 7.0 0.00 0.00 0.00 86 1015.1
20260902044509 80 193 1.0 5.0 0.00 0.00 0.00 86 1015.2
20260902043011 80 170 2.0 5.0 0.00 0.00 0.00 85 1015.2
20260902041502 80 192 1.0 5.0 0.00 0.00 0.00 85 1015.2
20260902040058 80 199 0.0 5.0 0.00 0.00 0.00 84 1015.2
20260902034557 81 201 1.0 5.0 0.00 0.00 0.00 84 1015.1
20260902033054 81 227 0.0 3.0 0.00 0.00 0.00 84 1015.1
20260902031604 82 167 1.0 4.0 0.00 0.00 0.00 83 1015.2
20260902030053 82 193 0.0 4.0 0.00 0.00 0.00 83 1015.2
20260902024556 82 224 1.0 4.0 0.00 0.13 0.00 82 1015.2
20260902023059 83 224 0.0 4.0 0.00 0.13 0.00 82 1015.1
20260902021550 83 216 0.0 1.0 0.00 0.13 0.00 82 1015.1
20260902020042 83 162 0.0 2.0 0.00 0.13 0.00 82 1015.0
20260902014542 84 226 1.0 3.0 0.00 0.13 0.00 82 1015.0
20260902013038 84 221 0.0 1.0 0.00 0.13 0.00 82 1015.0
20260902011536 85 147 0.0 1.0 0.00 0.13 0.00 80 1014.9
20260902010037 86 244 0.0 1.0 0.00 0.13 0.00 79 1014.7
20260902004534 86 239 0.0 2.0 0.00 0.13 0.00 78 1014.6
20260902003032 87 230 0.0 2.0 0.00 0.13 0.00 76 1014.6
20260902001530 88 236 0.0 4.0 0.00 0.13 0.00 74 1014.5
20260902000027 89 257 2.0 4.0 0.00 0.13 0.00 73 1014.6
20260901234522 90 197 0.0 5.0 0.00 0.13 0.00 71 1014.6
20260901233043 91 231 1.0 5.0 0.00 0.13 0.00 69 1014.6
20260901231518 91 221 3.0 5.0 0.00 0.13 0.00 68 1014.8
20260901230030 91 250 2.0 6.0 0.00 0.13 0.00 69 1014.8
20260901224512 92 228 1.0 4.0 0.00 0.13 0.00 67 1014.7
20260901223007 92 270 3.0 7.0 0.00 0.13 0.00 66 1014.7
20260901221502 92 310 1.0 6.0 0.00 0.13 0.00 68 1014.7
20260901220059 92 279 4.0 8.0 0.00 0.13 0.00 65 1014.8
20260901214604 93 238 5.0 8.0 0.00 0.13 0.00 64 1014.6
20260901213122 93 259 4.0 9.0 0.00 0.13 0.00 62 1014.6
20260901211547 93 288 3.0 7.0 0.00 0.13 0.00 63 1014.6
20260901210041 93 198 4.0 9.0 0.00 0.13 0.00 64 1014.7
20260901204536 93 130 1.0 8.0 0.00 0.13 0.00 63 1014.8
20260901203045 92 225 5.0 11.0 0.00 0.13 0.00 64 1014.9
20260901201528 91 218 6.0 11.0 0.00 0.13 0.00 65 1015.0
20260901200032 91 250 6.0 11.0 0.00 0.13 0.00 64 1015.0
20260901194520 92 269 5.0 11.0 0.00 0.13 0.00 64 1015.0
20260901193014 91 236 5.0 12.0 0.00 0.13 0.00 66 1015.1
20260901191624 91 129 4.0 12.0 0.00 0.13 0.00 66 1015.2
20260901190010 90 210 4.0 10.0 0.00 0.13 0.00 68 1015.2
20260901184504 90 209 5.0 11.0 0.00 0.13 0.00 67 1015.4
20260901183104 89 208 6.0 13.0 0.00 0.13 0.00 69 1015.4
20260901181556 89 248 4.0 11.0 0.00 0.13 0.00 69 1015.3
20260901180054 89 250 6.0 15.0 0.00 0.13 0.00 69 1015.3
20260901174557 88 217 7.0 12.0 0.00 0.13 0.00 69 1015.4
20260901173051 88 227 6.0 13.0 0.00 0.13 0.00 70 1015.4
20260901171548 89 252 3.0 11.0 0.00 0.13 0.00 70 1015.5
20260901170043 88 204 6.0 13.0 0.00 0.13 0.00 70 1015.4
20260901164547 87 200 5.0 13.0 0.00 0.13 0.00 70 1015.6
20260901163039 86 205 8.0 14.0 0.00 0.13 0.00 72 1015.7
20260901161541 86 201 8.0 13.0 0.00 0.13 0.00 72 1015.7
20260901160027 85 169 8.0 15.0 0.00 0.13 0.00 73 1015.7
20260901154527 84 236 5.0 12.0 0.00 0.13 0.00 75 1015.9
20260901153030 84 217 4.0 13.0 0.00 0.13 0.00 76 1015.9
20260901151516 83 240 4.0 10.0 0.00 0.13 0.00 77 1016.1
20260901150013 83 250 3.0 7.0 0.00 0.13 0.00 76 1016.3
20260901144512 82 234 6.0 14.0 0.00 0.13 0.00 77 1016.5
20260901143012 82 239 5.0 11.0 0.00 0.13 0.00 77 1016.3
20260901141508 81 244 4.0 9.0 0.00 0.13 0.00 79 1016.3
20260901140001 80 248 5.0 10.0 0.00 0.13 0.00 80 1016.3
20260901134558 80 230 3.0 13.0 0.00 0.13 0.00 81 1016.2
20260901133053 78 186 4.0 9.0 0.00 0.13 0.00 82 1016.5
20260901131551 78 232 3.0 12.0 0.00 0.13 0.00 83 1016.6
20260901130049 78 238 2.0 10.0 0.00 0.13 0.00 83 1016.5
20260901124547 77 235 3.0 8.0 0.00 0.13 0.00 84 1016.4
20260901123046 77 207 3.0 10.0 0.00 0.13 0.00 85 1016.3
20260901121543 76 217 3.0 7.0 0.00 0.13 0.00 86 1016.5